contact:dominique.lefevre@mio.osupytheas.fr, maurice.libes@osupytheas.fr
Project:EMSO Ligure-ouest http://www.emso-fr.org/EMSO-France
Sensor Aquadopp, line 13 Serial AQD14315 
DOI : "https://doi.org/10.17882/74513; https://doi.org/10.17882/83244" 
Title:EMSO Ligure Ouest : Data ligne ALBATROSS capteur AQUADOPP - deploiement 2021
Id,Date,Profondeur,Latitude,Longitude,X_East,Y_North,Z_Up,Amplitude_X,Amplitude_Y,Amplitude_Z,Batterie,SoundSpeed,Heading,Pitch,Roll,Pressure,Temperature,Speed,Direction
, , m, degrees North, degrees East, m.s-1, m.s-1,m.s-1, 1, 1, 1, Volt, m.s-1, degree, degree, degree, dbar, degree_C, m.s-1, degree
11,2022-02-03T21:30:00,2200.0,42.79,6.0312,-0.066,0.032,0.003,56.0,57.0,59.0,12.3,1504.2,263.9,-2.0,0.4,2193.083,13.16,0.073,295.9
11,2022-02-03T22:00:00,2200.0,42.79,6.0312,-0.068,0.044,0.0,60.0,62.0,63.0,12.3,1504.2,269.7,-2.4,0.1,2193.136,13.16,0.08,302.9
11,2022-02-03T22:30:00,2200.0,42.79,6.0312,-0.091,0.027,0.007,58.0,62.0,65.0,12.4,1504.2,260.7,-2.0,1.2,2193.147,13.16,0.094,286.5
11,2022-02-03T23:00:00,2200.0,42.79,6.0312,-0.092,0.025,0.008,60.0,61.0,64.0,12.4,1504.2,260.3,-1.6,1.0,2193.118,13.16,0.095,285.2
11,2022-02-03T23:30:00,2200.0,42.79,6.0312,-0.091,0.027,0.011,60.0,65.0,64.0,12.4,1504.2,261.4,-2.0,0.7,2193.141,13.16,0.094,286.5
11,2022-02-04T00:00:00,2200.0,42.79,6.0312,-0.091,0.013,0.018,64.0,66.0,68.0,12.3,1504.2,249.0,-2.0,0.6,2193.11,13.16,0.091,278.1
11,2022-02-04T00:30:00,2200.0,42.79,6.0312,-0.086,0.028,0.0,64.0,68.0,68.0,12.4,1504.3,260.8,-2.1,0.9,2193.08,13.17,0.09,288.0
11,2022-02-04T01:00:00,2200.0,42.79,6.0312,-0.073,0.033,0.004,65.0,67.0,67.0,12.4,1504.3,262.3,-2.0,0.4,2193.113,13.17,0.08,294.3
11,2022-02-04T01:30:00,2200.0,42.79,6.0312,-0.079,0.021,0.004,58.0,62.0,61.0,12.3,1504.3,257.6,-2.0,0.7,2193.016,13.17,0.081,284.9
11,2022-02-04T02:00:00,2200.0,42.79,6.0312,-0.083,0.02,0.015,62.0,66.0,69.0,12.3,1504.3,256.8,-1.6,1.0,2192.989,13.17,0.085,283.5
11,2022-02-04T02:30:00,2200.0,42.79,6.0312,-0.07,0.021,0.012,63.0,69.0,67.0,12.4,1504.2,254.4,-1.9,0.7,2192.999,13.16,0.073,286.7
11,2022-02-04T03:00:00,2200.0,42.79,6.0312,-0.084,0.014,0.003,63.0,66.0,67.0,12.4,1504.2,256.8,-2.1,0.4,2193.016,13.16,0.085,279.5
11,2022-02-04T03:30:00,2200.0,42.79,6.0312,-0.073,0.027,0.015,58.0,62.0,63.0,12.4,1504.2,258.4,-2.1,0.2,2193.053,13.16,0.077,290.3
11,2022-02-04T04:00:00,2200.0,42.79,6.0312,-0.072,-0.001,0.002,54.0,56.0,58.0,12.4,1504.2,250.5,-1.6,0.9,2192.982,13.16,0.072,269.2
11,2022-02-04T04:30:00,2200.0,42.79,6.0312,-0.08,0.003,-0.01,55.0,56.0,58.0,12.3,1504.2,255.7,-2.0,0.7,2193.013,13.16,0.08,272.1
11,2022-02-04T05:00:00,2200.0,42.79,6.0312,-0.075,-0.006,0.004,53.0,55.0,57.0,12.3,1504.2,255.6,-2.1,0.5,2193.092,13.16,0.075,265.4
11,2022-02-04T05:30:00,2200.0,42.79,6.0312,-0.07,0.0,-0.003,50.0,53.0,53.0,12.4,1504.2,257.4,-1.9,0.8,2193.105,13.16,0.069,270.0
11,2022-02-04T06:00:00,2200.0,42.79,6.0312,-0.072,-0.011,0.0,56.0,60.0,60.0,12.4,1504.2,243.3,-2.0,0.9,2193.102,13.16,0.072,261.3
11,2022-02-04T06:30:00,2200.0,42.79,6.0312,-0.077,-0.003,0.007,57.0,61.0,60.0,12.3,1504.3,248.5,-1.8,0.9,2193.1,13.17,0.077,267.8
11,2022-02-04T07:00:00,2200.0,42.79,6.0312,-0.08,-0.017,0.016,57.0,61.0,62.0,12.4,1504.3,248.2,-2.3,0.4,2193.158,13.17,0.081,258.0
11,2022-02-04T07:30:00,2200.0,42.79,6.0312,-0.074,-0.02,0.021,56.0,61.0,60.0,12.3,1504.3,242.9,-1.8,1.0,2193.252,13.17,0.076,254.9
11,2022-02-04T08:00:00,2200.0,42.79,6.0312,-0.078,-0.027,0.01,57.0,60.0,61.0,12.4,1504.3,240.0,-2.2,0.6,2193.276,13.17,0.082,250.9
11,2022-02-04T08:30:00,2200.0,42.79,6.0312,-0.079,-0.026,0.0,56.0,60.0,62.0,12.4,1504.3,243.8,-2.1,0.3,2193.334,13.17,0.083,251.8
11,2022-02-04T09:00:00,2200.0,42.79,6.0312,-0.071,-0.034,-0.002,56.0,59.0,61.0,12.3,1504.3,238.1,-2.2,0.8,2193.375,13.17,0.078,244.4
11,2022-02-04T09:30:00,2200.0,42.79,6.0312,-0.088,-0.025,0.002,58.0,61.0,61.0,12.4,1504.3,237.7,-2.2,1.2,2193.403,13.17,0.091,254.1
11,2022-02-04T10:00:00,2200.0,42.79,6.0312,-0.087,-0.017,0.005,57.0,60.0,62.0,12.4,1504.3,248.0,-2.0,0.9,2193.397,13.17,0.088,258.9
11,2022-02-04T10:30:00,2200.0,42.79,6.0312,-0.1,0.001,-0.005,59.0,59.0,62.0,12.3,1504.3,250.5,-2.7,1.1,2193.382,13.17,0.1,270.6
11,2022-02-04T11:00:00,2200.0,42.79,6.0312,-0.108,-0.004,0.003,57.0,60.0,61.0,12.3,1504.3,242.6,-2.1,0.8,2193.353,13.18,0.108,267.9
11,2022-02-04T11:30:00,2200.0,42.79,6.0312,-0.107,0.005,0.01,58.0,61.0,64.0,12.4,1504.3,252.0,-2.5,0.6,2193.352,13.18,0.107,272.7
11,2022-02-04T12:00:00,2200.0,42.79,6.0312,-0.1,0.012,0.009,60.0,61.0,63.0,12.4,1504.3,245.6,-2.7,0.8,2193.338,13.17,0.1,276.8
11,2022-02-04T12:30:00,2200.0,42.79,6.0312,-0.103,0.018,0.014,59.0,63.0,63.0,12.4,1504.3,254.2,-2.0,0.6,2193.281,13.17,0.104,279.9
11,2022-02-04T13:00:00,2200.0,42.79,6.0312,-0.111,0.032,0.005,58.0,60.0,63.0,12.3,1504.3,250.5,-2.3,0.4,2193.267,13.17,0.115,286.1
11,2022-02-04T13:30:00,2200.0,42.79,6.0312,-0.098,0.058,-0.021,58.0,61.0,63.0,12.4,1504.3,267.4,-2.2,0.6,2193.257,13.17,0.113,300.6
11,2022-02-04T14:00:00,2200.0,42.79,6.0312,-0.099,0.033,0.03,56.0,61.0,62.0,12.4,1504.3,248.8,-1.6,0.5,2193.203,13.17,0.104,288.4
11,2022-02-04T14:30:00,2200.0,42.79,6.0312,-0.108,0.054,0.005,58.0,59.0,59.0,12.4,1504.3,258.7,-2.4,0.7,2193.239,13.17,0.12,296.6
11,2022-02-04T15:00:00,2200.0,42.79,6.0312,-0.096,0.042,-0.006,57.0,60.0,62.0,12.3,1504.3,249.2,-2.3,0.9,2193.199,13.17,0.104,293.6
11,2022-02-04T15:30:00,2200.0,42.79,6.0312,-0.097,0.042,0.017,57.0,63.0,62.0,12.4,1504.3,256.6,-1.4,0.6,2193.199,13.17,0.105,293.4
11,2022-02-04T16:30:00,2200.0,42.79,6.0312,-0.084,0.043,0.023,57.0,60.0,60.0,12.4,1504.2,254.3,-1.4,1.0,2193.102,13.16,0.094,297.1
11,2022-02-04T17:00:00,2200.0,42.79,6.0312,-0.067,0.037,0.003,56.0,57.0,58.0,12.4,1504.2,256.2,-1.7,0.7,2193.153,13.16,0.076,298.9
11,2022-02-04T17:30:00,2200.0,42.79,6.0312,-0.073,0.016,-0.009,57.0,58.0,61.0,12.3,1504.2,243.7,-2.7,0.6,2193.12,13.16,0.074,282.4
11,2022-02-04T18:00:00,2200.0,42.79,6.0312,-0.076,0.025,-0.006,55.0,59.0,59.0,12.4,1504.2,249.9,-1.9,0.9,2193.143,13.16,0.08,288.2
11,2022-02-04T18:30:00,2200.0,42.79,6.0312,-0.059,0.032,0.005,56.0,60.0,59.0,12.3,1504.2,256.4,-1.9,0.7,2193.109,13.16,0.067,298.5
11,2022-02-04T19:00:00,2200.0,42.79,6.0312,-0.067,0.024,0.001,51.0,54.0,57.0,12.3,1504.2,256.5,-1.8,0.4,2193.121,13.16,0.071,289.7
11,2022-02-04T19:30:00,2200.0,42.79,6.0312,-0.059,0.023,0.005,50.0,54.0,55.0,12.4,1504.2,257.8,-2.0,0.4,2193.193,13.16,0.063,291.3
11,2022-02-04T20:00:00,2200.0,42.79,6.0312,-0.056,0.015,0.018,54.0,54.0,55.0,12.4,1504.2,254.8,-2.0,0.6,2193.158,13.16,0.057,285.0
11,2022-02-04T20:30:00,2200.0,42.79,6.0312,-0.056,0.009,0.007,54.0,57.0,58.0,12.3,1504.2,259.6,-1.4,0.4,2193.153,13.16,0.056,279.1
11,2022-02-04T21:00:00,2200.0,42.79,6.0312,-0.059,-0.004,0.013,55.0,57.0,59.0,12.3,1504.2,253.7,-1.6,0.6,2193.1,13.16,0.059,266.1
